Location: Caltech
(34.1382°N, 118.1253°W)
Time: 10:06:27
(UTC-08:00)

Hamsat - Visible Passes

Search period start: 28 November 2014 00:00
Search period end: 08 December 2014 00:00
Orbit: 593 x 626 km, 97.6° (Epoch: 27 November)

Date Brightness Start Highest point End Pass type
(mag) Time Alt. Az. Time Alt. Az. Time Alt. Az.
28 Nov ? 05:40:08 10° N 05:44:30 83° WNW 05:48:51 10° SSW visible
28 Nov ? 18:07:50 10° WSW 18:09:39 13° W 18:11:28 10° WNW visible
29 Nov ? 04:22:05 10° E 04:22:19 10° E 04:22:34 10° E visible
29 Nov ? 05:54:15 10° N 05:58:31 55° WNW 06:02:45 10° SSW visible
30 Nov ? 04:33:55 10° ENE 04:36:29 15° E 04:39:03 10° SE visible
30 Nov ? 06:08:29 10° N 06:12:30 37° WNW 06:16:30 10° SW visible
01 Dec ? 04:47:12 10° NE 04:50:37 22° E 04:54:01 10° SSE visible
01 Dec ? 17:11:28 10° S 17:15:35 56° W 17:19:46 10° NNW visible
02 Dec ? 05:00:47 10° NNE 05:04:43 32° E 05:08:37 10° SSE visible
02 Dec ? 17:25:44 10° SSW 17:29:38 37° W 17:33:35 10° NNW visible
03 Dec ? 05:14:32 10° NNE 05:18:46 48° E 05:22:58 10° S visible
03 Dec ? 17:40:13 10° SSW 17:43:42 25° W 17:47:14 10° NW visible
04 Dec ? 05:28:26 10° NNE 05:32:47 73° E 05:37:07 10° S visible
04 Dec ? 17:54:59 10° SW 17:57:47 17° W 18:00:37 10° NW visible
05 Dec ? 05:42:25 10° N 05:46:47 75° WNW 05:51:06 10° SSW visible
05 Dec ? 18:10:26 10° WSW 18:11:53 12° W 18:13:21 10° WNW visible
06 Dec ? 04:23:18 10° ENE 04:24:34 11° E 04:25:51 10° ESE visible
06 Dec ? 05:56:30 10° N 06:00:44 50° WNW 06:04:55 10° SSW visible
07 Dec ? 04:35:53 10° NE 04:38:40 17° E 04:41:27 10° SE visible
07 Dec ? 06:10:42 10° N 06:14:39 34° WNW 06:18:33 10° SW visible
